Index of /20260414/WXO-DD/model_gdps/15km/12/058
Name Last modified Size Description
Parent Directory -
20260414T12Z_MSC_GDPS_AirTemp_AGL-120m_LatLon0.15_PT058H.grib2 2026-04-14 16:08 917K
20260414T12Z_MSC_GDPS_AirTemp_AGL-2m_LatLon0.15_PT058H.grib2 2026-04-14 16:08 1.0M
20260414T12Z_MSC_GDPS_AirTemp_AGL-40m_LatLon0.15_PT058H.grib2 2026-04-14 16:08 825K
20260414T12Z_MSC_GDPS_AirTemp_AGL-80m_LatLon0.15_PT058H.grib2 2026-04-14 16:08 929K
20260414T12Z_MSC_GDPS_Albedo_Sfc_LatLon0.15_PT058H.grib2 2026-04-14 16:08 244K
20260414T12Z_MSC_GDPS_ConvectivePrecip-Accum_Sfc_LatLon0.15_PT058H.grib2 2026-04-14 16:08 2.8M
20260414T12Z_MSC_GDPS_DewPointDepression_AGL-2m_LatLon0.15_PT058H.grib2 2026-04-14 16:08 752K
20260414T12Z_MSC_GDPS_DewPoint_AGL-2m_LatLon0.15_PT058H.grib2 2026-04-14 16:08 611K
20260414T12Z_MSC_GDPS_DownwardLongwaveRadiationFlux-Accum_Sfc_LatLon0.15_PT058H.grib2 2026-04-14 16:08 859K
20260414T12Z_MSC_GDPS_DownwardShortwaveRadiationFlux-Accum_Sfc_LatLon0.15_PT058H.grib2 2026-04-14 16:08 1.1M
20260414T12Z_MSC_GDPS_FreezingRain-Accum1h_Sfc_LatLon0.15_PT058H.grib2 2026-04-14 16:08 38K
20260414T12Z_MSC_GDPS_FreezingRain-Accum_Sfc_LatLon0.15_PT058H.grib2 2026-04-14 16:08 199K
20260414T12Z_MSC_GDPS_IcePellets-Accum1h_Sfc_LatLon0.15_PT058H.grib2 2026-04-14 16:08 12K
20260414T12Z_MSC_GDPS_IcePellets-Accum_Sfc_LatLon0.15_PT058H.grib2 2026-04-14 16:08 90K
20260414T12Z_MSC_GDPS_LatentHeatNetFlux_Sfc_LatLon0.15_PT058H.grib2 2026-04-14 16:08 635K
20260414T12Z_MSC_GDPS_NetLongwaveRadiationFlux-Accum_Sfc_LatLon0.15_PT058H.grib2 2026-04-14 16:08 913K
20260414T12Z_MSC_GDPS_NetShortwaveRadiationFlux-Accum_Sfc_LatLon0.15_PT058H.grib2 2026-04-14 16:08 1.1M
20260414T12Z_MSC_GDPS_O3MixingRatio_LatLon0.15_PT058H.grib2 2026-04-14 16:55 2.0M
20260414T12Z_MSC_GDPS_O3_EAtm_LatLon0.15_PT058H.grib2 2026-04-14 16:55 2.1M
20260414T12Z_MSC_GDPS_PlanetaryBoundaryLayerHeight_Sfc_LatLon0.15_PT058H.grib2 2026-04-14 16:08 2.4M
20260414T12Z_MSC_GDPS_Precip-Accum1h_Sfc_LatLon0.15_PT058H.grib2 2026-04-14 16:08 3.2M
20260414T12Z_MSC_GDPS_Precip-Accum_Sfc_LatLon0.15_PT058H.grib2 2026-04-14 16:08 4.9M
20260414T12Z_MSC_GDPS_PrecipRate_Sfc_LatLon0.15_PT058H.grib2 2026-04-14 16:08 2.9M
20260414T12Z_MSC_GDPS_Pressure_MSL_LatLon0.15_PT058H.grib2 2026-04-14 16:08 718K
20260414T12Z_MSC_GDPS_Pressure_Sfc_LatLon0.15_PT058H.grib2 2026-04-14 16:08 1.1M
20260414T12Z_MSC_GDPS_RadiativeTemp_Sfc_LatLon0.15_PT058H.grib2 2026-04-14 16:08 663K
20260414T12Z_MSC_GDPS_Rain-Accum1h_Sfc_LatLon0.15_PT058H.grib2 2026-04-14 16:08 1.6M
20260414T12Z_MSC_GDPS_Rain-Accum_Sfc_LatLon0.15_PT058H.grib2 2026-04-14 16:08 3.6M
20260414T12Z_MSC_GDPS_RelativeHumidity_AGL-2m_LatLon0.15_PT058H.grib2 2026-04-14 16:08 1.0M
20260414T12Z_MSC_GDPS_Runoff-Accum_Sfc_LatLon0.15_PT058H.grib2 2026-04-14 16:08 112K
20260414T12Z_MSC_GDPS_SensibleHeatNetFlux_Sfc_LatLon0.15_PT058H.grib2 2026-04-14 16:08 591K
20260414T12Z_MSC_GDPS_Snow-Accum1h_Sfc_LatLon0.15_PT058H.grib2 2026-04-14 16:08 1.0M
20260414T12Z_MSC_GDPS_Snow-Accum_Sfc_LatLon0.15_PT058H.grib2 2026-04-14 16:08 1.8M
20260414T12Z_MSC_GDPS_SnowDepth_Sfc_LatLon0.15_PT058H.grib2 2026-04-14 16:08 1.8M
20260414T12Z_MSC_GDPS_SoilTemp_DBS-0to10cm_LatLon0.15_PT058H.grib2 2026-04-14 16:08 506K
20260414T12Z_MSC_GDPS_SoilTemp_Sfc_LatLon0.15_PT058H.grib2 2026-04-14 16:08 579K
20260414T12Z_MSC_GDPS_SoilVolumetricWaterContent_DBS-0to10cm_LatLon0.15_PT058H.grib2 2026-04-14 16:08 552K
20260414T12Z_MSC_GDPS_SoilVolumetricWaterContent_DBS-0to1cm_LatLon0.15_PT058H.grib2 2026-04-14 16:08 651K
20260414T12Z_MSC_GDPS_SpecificHumidity_AGL-120m_LatLon0.15_PT058H.grib2 2026-04-14 16:08 1.1M
20260414T12Z_MSC_GDPS_SpecificHumidity_AGL-2m_LatLon0.15_PT058H.grib2 2026-04-14 16:08 1.2M
20260414T12Z_MSC_GDPS_SpecificHumidity_AGL-40m_LatLon0.15_PT058H.grib2 2026-04-14 16:08 1.1M
20260414T12Z_MSC_GDPS_SpecificHumidity_AGL-80m_LatLon0.15_PT058H.grib2 2026-04-14 16:08 1.1M
20260414T12Z_MSC_GDPS_SpecificHumidity_Sfc_LatLon0.15_PT058H.grib2 2026-04-14 16:08 621K
20260414T12Z_MSC_GDPS_TotalCloudCover_Sfc_LatLon0.15_PT058H.grib2 2026-04-14 16:08 835K
20260414T12Z_MSC_GDPS_UVIndex-ClearSky_Sfc_LatLon0.15_PT058H.grib2 2026-04-14 16:55 1.0M
20260414T12Z_MSC_GDPS_UVIndex_Sfc_LatLon0.15_PT058H.grib2 2026-04-14 16:55 1.5M
20260414T12Z_MSC_GDPS_UpwardLongwaveRadiationFlux_NTAtm_LatLon0.15_PT058H.grib2 2026-04-14 16:08 832K
20260414T12Z_MSC_GDPS_WindDir_AGL-10m_LatLon0.15_PT058H.grib2 2026-04-14 16:08 1.4M
20260414T12Z_MSC_GDPS_WindDir_AGL-120m_LatLon0.15_PT058H.grib2 2026-04-14 16:08 1.4M
20260414T12Z_MSC_GDPS_WindDir_AGL-40m_LatLon0.15_PT058H.grib2 2026-04-14 16:08 1.4M
20260414T12Z_MSC_GDPS_WindDir_AGL-80m_LatLon0.15_PT058H.grib2 2026-04-14 16:08 1.4M
20260414T12Z_MSC_GDPS_WindDir_IsbL-0700_LatLon0.15_PT058H.grib2 2026-04-14 16:08 1.6M
20260414T12Z_MSC_GDPS_WindGust-Max_AGL-10m_LatLon0.15_PT058H.grib2 2026-04-14 16:08 2.2M
20260414T12Z_MSC_GDPS_WindGust-Min_AGL-10m_LatLon0.15_PT058H.grib2 2026-04-14 16:08 2.2M
20260414T12Z_MSC_GDPS_WindGust_AGL-10m_LatLon0.15_PT058H.grib2 2026-04-14 16:08 2.2M
20260414T12Z_MSC_GDPS_WindSpeed_AGL-10m_LatLon0.15_PT058H.grib2 2026-04-14 16:08 1.1M
20260414T12Z_MSC_GDPS_WindSpeed_AGL-120m_LatLon0.15_PT058H.grib2 2026-04-14 16:08 1.3M
20260414T12Z_MSC_GDPS_WindSpeed_AGL-40m_LatLon0.15_PT058H.grib2 2026-04-14 16:08 1.2M
20260414T12Z_MSC_GDPS_WindSpeed_AGL-80m_LatLon0.15_PT058H.grib2 2026-04-14 16:08 1.2M
20260414T12Z_MSC_GDPS_WindSpeed_IsbL-0700_LatLon0.15_PT058H.grib2 2026-04-14 16:08 1.5M
20260414T12Z_MSC_GDPS_WindU_AGL-10m_LatLon0.15_PT058H.grib2 2026-04-14 16:08 1.3M
20260414T12Z_MSC_GDPS_WindU_AGL-120m_LatLon0.15_PT058H.grib2 2026-04-14 16:08 1.0M
20260414T12Z_MSC_GDPS_WindU_AGL-40m_LatLon0.15_PT058H.grib2 2026-04-14 16:08 971K
20260414T12Z_MSC_GDPS_WindU_AGL-80m_LatLon0.15_PT058H.grib2 2026-04-14 16:08 1.0M
20260414T12Z_MSC_GDPS_WindU_IsbL-0700_LatLon0.15_PT058H.grib2 2026-04-14 16:08 1.2M
20260414T12Z_MSC_GDPS_WindV_AGL-10m_LatLon0.15_PT058H.grib2 2026-04-14 16:08 1.6M
20260414T12Z_MSC_GDPS_WindV_AGL-120m_LatLon0.15_PT058H.grib2 2026-04-14 16:08 1.0M
20260414T12Z_MSC_GDPS_WindV_AGL-40m_LatLon0.15_PT058H.grib2 2026-04-14 16:08 1.2M
20260414T12Z_MSC_GDPS_WindV_AGL-80m_LatLon0.15_PT058H.grib2 2026-04-14 16:08 1.0M
20260414T12Z_MSC_GDPS_WindV_IsbL-0700_LatLon0.15_PT058H.grib2 2026-04-14 16:08 1.2M